When you browse on this site, cookies collect data to enhance your experience and personalize the content and advertising you see.
Visit our Privacy Policy to learn more. By continuing to use the site, you agree to this use of cookies and data.

Hourly Weather Alicante

Today, 15 July, Wednesday

Time Temperature Precipitation Wind Pressure Humidity
00:00 +26°C° 0 mm 2 mps 761 mmHg 78%
01:00 +25°C° 0 mm 2 mps 760 mmHg 78%
02:00 +25°C° 0 mm 2 mps 760 mmHg 77%
03:00 +25°C° 0 mm 1 mps 760 mmHg 77%
04:00 +25°C° 0 mm 2 mps 760 mmHg 75%
05:00 +25°C° 0 mm 2 mps 760 mmHg 72%
06:00 +26°C° 0 mm 3 mps 760 mmHg 69%
07:00 +27°C° 0 mm 3 mps 761 mmHg 64%
08:00 +28°C° 0 mm 3 mps 761 mmHg 59%
09:00 +29°C° 0 mm 4 mps 761 mmHg 54%
10:00 +30°C° 0 mm 4 mps 761 mmHg 51%
11:00 +30°C° 0 mm 4 mps 761 mmHg 49%
12:00 +32°C° 0 mm 5 mps 761 mmHg 46%
13:00 +32°C° 0 mm 5 mps 761 mmHg 47%
14:00 +32°C° 0 mm 5 mps 761 mmHg 47%
15:00 +32°C° 0 mm 5 mps 761 mmHg 48%
16:00 +30°C° 0 mm 5 mps 761 mmHg 51%
17:00 +30°C° 0 mm 5 mps 760 mmHg 53%
18:00 +29°C° 0 mm 4 mps 760 mmHg 56%
19:00 +28°C° 0 mm 4 mps 761 mmHg 59%
20:00 +28°C° 0 mm 3 mps 761 mmHg 61%
21:00 +27°C° 0 mm 3 mps 762 mmHg 64%
22:00 +27°C° 0 mm 3 mps 762 mmHg 67%
23:00 +26°C° 0 mm 2 mps 762 mmHg 70%

Tomorrow, 16 July, Thursday

Time Temperature Precipitation Wind Pressure Humidity
00:00 +26°C° 0 mm 2 mps 762 mmHg 73%
01:00 +26°C° 0 mm 2 mps 762 mmHg 74%
02:00 +25°C° 0 mm 1 mps 762 mmHg 76%
03:00 +25°C° 0 mm 1 mps 761 mmHg 78%
04:00 +25°C° 0 mm 1 mps 762 mmHg 75%
05:00 +25°C° 0 mm 2 mps 762 mmHg 73%
06:00 +26°C° 0 mm 2 mps 762 mmHg 70%
07:00 +27°C° 0 mm 2 mps 762 mmHg 62%
08:00 +28°C° 0 mm 3 mps 762 mmHg 55%
09:00 +30°C° 0 mm 4 mps 763 mmHg 47%
10:00 +30°C° 0 mm 4 mps 763 mmHg 48%
11:00 +32°C° 0 mm 4 mps 762 mmHg 48%
12:00 +32°C° 0 mm 5 mps 762 mmHg 49%
13:00 +32°C° 0 mm 5 mps 762 mmHg 50%
14:00 +32°C° 0 mm 5 mps 761 mmHg 51%
15:00 +32°C° 0 mm 5 mps 761 mmHg 53%
16:00 +30°C° 0 mm 4 mps 761 mmHg 56%
17:00 +30°C° 0 mm 4 mps 761 mmHg 58%
18:00 +29°C° 0 mm 4 mps 761 mmHg 61%
19:00 +28°C° 0 mm 3 mps 761 mmHg 66%
20:00 +27°C° 0 mm 3 mps 761 mmHg 70%
21:00 +26°C° 0 mm 2 mps 761 mmHg 75%
22:00 +26°C° 0 mm 2 mps 761 mmHg 76%
23:00 +26°C° 0 mm 1 mps 761 mmHg 78%

Day after tomorrow, 17 July, Friday

Time Temperature Precipitation Wind Pressure Humidity
00:00 +25°C° 0 mm 1 mps 761 mmHg 79%
01:00 +25°C° 0 mm 1 mps 761 mmHg 81%
02:00 +25°C° 0 mm 1 mps 761 mmHg 82%
03:00 +23°C° 0 mm 0 mps 761 mmHg 83%
04:00 +23°C° 0 mm 0 mps 761 mmHg 81%
05:00 +23°C° 0 mm 0 mps 761 mmHg 80%
06:00 +23°C° 0 mm 0 mps 761 mmHg 78%
07:00 +27°C° 0 mm 1 mps 761 mmHg 70%
08:00 +28°C° 0 mm 2 mps 761 mmHg 61%
09:00 +30°C° 0 mm 3 mps 760 mmHg 53%
10:00 +30°C° 0 mm 3 mps 760 mmHg 51%
11:00 +31°C° 0 mm 3 mps 760 mmHg 50%
12:00 +33°C° 0 mm 4 mps 760 mmHg 48%
13:00 +32°C° 0 mm 4 mps 760 mmHg 50%
14:00 +32°C° 0 mm 4 mps 759 mmHg 51%
15:00 +32°C° 0 mm 4 mps 759 mmHg 53%
16:00 +30°C° 0 mm 4 mps 759 mmHg 56%
17:00 +29°C° 0 mm 3 mps 759 mmHg 59%
18:00 +29°C° 0 mm 3 mps 759 mmHg 62%
19:00 +28°C° 0 mm 3 mps 759 mmHg 66%
20:00 +27°C° 0 mm 3 mps 760 mmHg 70%
21:00 +27°C° 0 mm 2 mps 761 mmHg 74%
22:00 +26°C° 0 mm 2 mps 761 mmHg 76%
23:00 +26°C° 0 mm 2 mps 761 mmHg 78%

18 July, Saturday

Time Temperature Precipitation Wind Pressure Humidity
00:00 +26°C° 0 mm 1 mps 761 mmHg 80%
01:00 +25°C° 0 mm 1 mps 761 mmHg 82%
02:00 +25°C° 0 mm 1 mps 760 mmHg 83%
03:00 +25°C° 0 mm 1 mps 760 mmHg 85%
04:00 +25°C° 0 mm 1 mps 760 mmHg 84%
05:00 +25°C° 0 mm 1 mps 760 mmHg 83%
06:00 +25°C° 0 mm 1 mps 760 mmHg 82%
07:00 +26°C° 0 mm 2 mps 760 mmHg 75%
08:00 +27°C° 0 mm 2 mps 761 mmHg 68%
09:00 +28°C° 0 mm 3 mps 761 mmHg 61%
10:00 +29°C° 0 mm 3 mps 761 mmHg 58%
11:00 +30°C° 0 mm 3 mps 761 mmHg 55%
12:00 +32°C° 0 mm 4 mps 760 mmHg 51%
13:00 +32°C° 0 mm 4 mps 760 mmHg 52%
14:00 +32°C° 0 mm 4 mps 760 mmHg 52%
15:00 +32°C° 0 mm 4 mps 760 mmHg 52%
16:00 +30°C° 0 mm 4 mps 759 mmHg 56%
17:00 +30°C° 0 mm 3 mps 759 mmHg 59%
18:00 +29°C° 0 mm 3 mps 759 mmHg 63%
19:00 +28°C° 0 mm 2 mps 760 mmHg 66%
20:00 +27°C° 0 mm 2 mps 760 mmHg 70%
21:00 +27°C° 0 mm 1 mps 761 mmHg 73%
22:00 +26°C° 0 mm 1 mps 761 mmHg 75%
23:00 +26°C° 0 mm 1 mps 760 mmHg 77%

19 July, Sunday

Time Temperature Precipitation Wind Pressure Humidity
00:00 +25°C° 0 mm 1 mps 760 mmHg 79%
01:00 +23°C° 0 mm 0 mps 760 mmHg 80%
02:00 +23°C° 0 mm 0 mps 760 mmHg 82%
03:00 +22°C° 0 mm 0 mps 760 mmHg 83%
04:00 +23°C° 0 mm 0 mps 760 mmHg 80%
05:00 +23°C° 0 mm 0 mps 760 mmHg 76%
06:00 +24°C° 0 mm 0 mps 760 mmHg 73%
07:00 +27°C° 0 mm 1 mps 760 mmHg 65%
08:00 +29°C° 0 mm 1 mps 761 mmHg 57%
09:00 +30°C° 0 mm 2 mps 761 mmHg 48%
10:00 +32°C° 0 mm 2 mps 761 mmHg 45%
11:00 +34°C° 0 mm 3 mps 761 mmHg 42%
12:00 +35°C° 0 mm 4 mps 760 mmHg 38%
13:00 +35°C° 0 mm 4 mps 760 mmHg 39%
14:00 +35°C° 0 mm 4 mps 760 mmHg 40%
15:00 +35°C° 0 mm 4 mps 760 mmHg 40%
16:00 +34°C° 0 mm 4 mps 760 mmHg 44%
17:00 +33°C° 0 mm 3 mps 759 mmHg 48%
18:00 +31°C° 0 mm 3 mps 759 mmHg 51%
19:00 +30°C° 0 mm 2 mps 760 mmHg 57%
20:00 +28°C° 0 mm 2 mps 760 mmHg 62%
21:00 +27°C° 0 mm 1 mps 760 mmHg 68%
22:00 +27°C° 0 mm 1 mps 760 mmHg 68%
23:00 +27°C° 0 mm 1 mps 760 mmHg 67%

20 July, Monday

Time Temperature Precipitation Wind Pressure Humidity
00:00 +26°C° 0 mm 1 mps 760 mmHg 67%
01:00 +24°C° 0 mm 0 mps 760 mmHg 67%
02:00 +23°C° 0 mm 0 mps 760 mmHg 67%
03:00 +23°C° 0 mm 0 mps 760 mmHg 68%
04:00 +24°C° 0 mm 0 mps 760 mmHg 64%
05:00 +24°C° 0 mm 0 mps 760 mmHg 61%
06:00 +25°C° 0 mm 0 mps 760 mmHg 57%
07:00 +29°C° 0 mm 1 mps 760 mmHg 50%
08:00 +30°C° 0 mm 2 mps 760 mmHg 44%
09:00 +33°C° 0 mm 3 mps 760 mmHg 37%
10:00 +34°C° 0 mm 3 mps 760 mmHg 34%
11:00 +35°C° 0 mm 3 mps 760 mmHg 31%
12:00 +36°C° 0 mm 4 mps 760 mmHg 29%
13:00 +36°C° 0 mm 4 mps 760 mmHg 29%
14:00 +36°C° 0 mm 4 mps 760 mmHg 29%
15:00 +36°C° 0 mm 4 mps 760 mmHg 29%
16:00 +35°C° 0 mm 4 mps 760 mmHg 30%
17:00 +35°C° 0 mm 3 mps 759 mmHg 31%
18:00 +34°C° 0 mm 3 mps 759 mmHg 32%
19:00 +33°C° 0 mm 3 mps 760 mmHg 38%
20:00 +30°C° 0 mm 3 mps 760 mmHg 43%
21:00 +29°C° 0 mm 2 mps 760 mmHg 48%
22:00 +28°C° 0 mm 3 mps 761 mmHg 48%
23:00 +28°C° 0 mm 3 mps 761 mmHg 49%
Show more